Location: Newark
(25.6108°S, 54.5803°W)
Time: 05:07:05
(UTC+00:00)

deb Explorer IX - Pass Details

Date: 27 October 2020
Orbit: 538 x 1104 km, 38.8° (Epoch: 29 November)

Event Time Altitude Azimuth Distance (km) Brightness Sun altitude
Rises 03:24:52 0° 240° (WSW) 2,700 - -51.5°
Reaches altitude 10° 03:27:05 10° 240° (WSW) 1,804 - -51.5°
Maximum altitude 03:31:10 81° 327° (NNW) 565 - -51.4°
Drops below altitude 10° 03:35:29 10° 54° (NE) 1,907 - -51.3°
Sets 03:37:53 0° 55° (NE) 2,870 - -51.3°
